Ana Sayfa
METAR-TAF:

METAR-TAF

Havaalanları :

Edinburg, Teksas, Amerika Birleşik Devletleri

Enlem: 26-26-31N, Boylam: 098-07-46W, yükseklik: 24 m

Güncel hava durumu gözlemi

Rapor saat 02:35 UTC de 12 dakika önce yapıldı.
Rüzgar doğudan 5 kt
Sıcaklık 18°C
Nem 88%
Basınç 1014 hPa
Görüş mesafesi: 16.1 km
Açık gökyüzü

METAR: KEBG 190235Z AUTO 10005KT 10SM CLR 18/16 A2994 RMK AO2 T01780162

Saat: 20:47 (02:47 UTC)


TAF: eksik

4.000'den fazla havaalanı için hava durumu gözlemleri ve tahminleri (METAR ve TAF raporları).

Kullanılabilir istasyonlar harita üzerinde sarı ve kırmızı noktalarla gösterilir.

İstasyonun adını görmek için fareyi noktanın üzerinde gezdirin.

Sonrasında hava gözlem ve tahminlerini görmek için tıklayın.

Haritayı değiştirmek için: yaklaştırmak için siyah artı işaretli yeşil düğmeye ve uzaklaştırmak için de eksi işaretli düğmeye hızla tıklayın; bitişik haritalar için yeşil okları kullanın.


METAR-TAF: